TimeMDT,TemperatureF,Dew PointF,Humidity,Sea Level PressureIn,VisibilityMPH,Wind Direction,Wind SpeedMPH,Gust SpeedMPH,PrecipitationIn,Events,Conditions,WindDirDegrees,DateUTC
12:15 AM,45.3,28.0,51,30.12,10.0,ESE,6.9,-,N/A,,Scattered Clouds,120,2013-05-06 06:15:00
12:35 AM,42.4,28.2,57,30.12,10.0,ESE,6.9,-,N/A,,Clear,120,2013-05-06 06:35:00
12:55 AM,42.8,28.4,57,30.12,10.0,SE,6.9,-,N/A,,Clear,130,2013-05-06 06:55:00
1:15 AM,42.3,27.9,57,30.12,10.0,ESE,5.8,-,N/A,,Clear,120,2013-05-06 07:15:00
1:35 AM,43.9,27.7,53,30.11,10.0,ESE,8.1,-,N/A,,Clear,120,2013-05-06 07:35:00
1:55 AM,40.5,27.5,60,30.10,10.0,ESE,6.9,-,N/A,,Clear,110,2013-05-06 07:55:00
2:15 AM,38.1,27.9,67,30.09,10.0,ESE,6.9,-,N/A,,Clear,120,2013-05-06 08:15:00
2:35 AM,40.6,28.0,61,30.08,10.0,ESE,9.2,-,N/A,,Clear,120,2013-05-06 08:35:00
2:55 AM,39.2,28.0,64,30.08,10.0,ESE,8.1,-,N/A,,Clear,120,2013-05-06 08:55:00
3:15 AM,40.8,27.9,60,30.08,10.0,SE,6.9,-,N/A,,Clear,130,2013-05-06 09:15:00
3:35 AM,37.2,28.0,69,30.08,10.0,East,5.8,-,N/A,,Clear,90,2013-05-06 09:35:00
3:55 AM,35.2,27.9,74,30.08,10.0,ESE,6.9,-,N/A,,Clear,110,2013-05-06 09:55:00
4:15 AM,36.0,28.4,74,30.08,10.0,East,6.9,-,N/A,,Clear,100,2013-05-06 10:15:00
4:35 AM,34.7,28.0,77,30.08,10.0,ENE,4.6,-,N/A,,Clear,70,2013-05-06 10:35:00
4:55 AM,34.0,27.5,77,30.09,10.0,East,5.8,-,N/A,,Clear,80,2013-05-06 10:55:00
5:15 AM,33.3,27.3,79,30.09,10.0,East,6.9,-,N/A,,Clear,90,2013-05-06 11:15:00
5:35 AM,32.4,27.1,81,30.08,10.0,ENE,5.8,-,N/A,,Clear,70,2013-05-06 11:35:00
5:55 AM,32.2,27.3,82,30.09,10.0,ENE,8.1,-,N/A,,Clear,70,2013-05-06 11:55:00
6:15 AM,32.2,27.0,81,30.09,10.0,East,6.9,-,N/A,,Clear,80,2013-05-06 12:15:00
6:35 AM,34.5,28.0,77,30.09,10.0,ENE,5.8,-,N/A,,Clear,70,2013-05-06 12:35:00
6:55 AM,37.9,28.9,70,30.10,10.0,ENE,5.8,-,N/A,,Clear,60,2013-05-06 12:55:00
7:15 AM,40.1,28.9,64,30.10,10.0,ENE,4.6,-,N/A,,Clear,60,2013-05-06 13:15:00
7:35 AM,42.1,28.9,60,30.10,10.0,ENE,3.5,-,N/A,,Clear,60,2013-05-06 13:35:00
7:55 AM,45.9,28.6,51,30.11,10.0,East,3.5,-,N/A,,Clear,80,2013-05-06 13:55:00
8:15 AM,47.8,26.1,43,30.11,10.0,SE,6.9,-,N/A,,Clear,130,2013-05-06 14:15:00
8:35 AM,50.2,26.1,39,30.11,10.0,ESE,9.2,-,N/A,,Clear,120,2013-05-06 14:35:00
8:55 AM,52.2,25.7,36,30.10,10.0,SE,13.8,-,N/A,,Clear,130,2013-05-06 14:55:00
9:15 AM,56.3,23.7,28,30.09,10.0,SE,15.0,18.4,N/A,,Clear,140,2013-05-06 15:15:00
9:35 AM,57.7,21.9,25,30.09,10.0,SE,16.1,23.0,N/A,,Clear,140,2013-05-06 15:35:00
9:55 AM,59.0,20.1,22,30.08,10.0,SE,19.6,25.3,N/A,,Clear,140,2013-05-06 15:55:00
10:15 AM,61.0,21.2,22,30.08,10.0,SE,16.1,23.0,N/A,,Clear,140,2013-05-06 16:15:00
10:35 AM,61.3,21.0,21,30.07,10.0,SE,18.4,25.3,N/A,,Clear,140,2013-05-06 16:35:00
10:55 AM,62.4,22.8,22,30.07,10.0,ESE,19.6,26.5,N/A,,Clear,120,2013-05-06 16:55:00
11:15 AM,63.0,24.3,23,30.07,10.0,SE,17.3,24.2,N/A,,Clear,140,2013-05-06 17:15:00
11:35 AM,64.2,24.6,22,30.06,10.0,SE,16.1,24.2,N/A,,Clear,130,2013-05-06 17:35:00
1:55 PM,-9999,-9999,N/A,-9999,-9999.0,North,-9999.0,-,N/A,,Unknown,0,2013-05-06 19:55:00
2:15 PM,-9999,-9999,N/A,-9999,-9999.0,North,-9999.0,-,N/A,,Unknown,0,2013-05-06 20:15:00
2:35 PM,70.7,30.2,22,29.96,10.0,ESE,18.4,21.9,N/A,,Clear,110,2013-05-06 20:35:00
2:55 PM,72.5,29.8,21,29.96,10.0,SE,12.7,23.0,N/A,,Clear,130,2013-05-06 20:55:00
3:15 PM,73.0,30.9,21,29.95,10.0,ESE,18.4,25.3,N/A,,Clear,120,2013-05-06 21:15:00
3:35 PM,72.7,30.4,21,29.94,10.0,ESE,15.0,24.2,N/A,,Clear,110,2013-05-06 21:35:00
3:55 PM,73.2,29.8,20,29.93,10.0,SE,15.0,25.3,N/A,,Scattered Clouds,140,2013-05-06 21:55:00
4:15 PM,72.7,30.9,21,29.92,10.0,SE,15.0,23.0,N/A,,Mostly Cloudy,140,2013-05-06 22:15:00
4:55 PM,72.7,28.4,19,29.91,10.0,SE,13.8,21.9,N/A,,Mostly Cloudy,140,2013-05-06 22:55:00
5:15 PM,71.1,29.3,21,29.91,10.0,SSE,15.0,-,N/A,,Mostly Cloudy,150,2013-05-06 23:15:00
5:35 PM,70.7,28.4,21,29.91,10.0,SSE,11.5,18.4,N/A,,Overcast,150,2013-05-06 23:35:00
5:55 PM,69.4,28.9,22,29.91,10.0,SSE,16.1,-,N/A,,Mostly Cloudy,150,2013-05-06 23:55:00
6:15 PM,68.4,29.1,23,29.91,10.0,SSE,16.1,-,N/A,,Scattered Clouds,150,2013-05-07 00:15:00
6:35 PM,67.1,30.2,25,29.91,10.0,SSE,12.7,-,N/A,,Clear,150,2013-05-07 00:35:00
6:55 PM,65.8,30.9,27,29.91,10.0,SSE,11.5,-,N/A,,Clear,160,2013-05-07 00:55:00
7:15 PM,63.9,31.1,29,29.91,10.0,SE,8.1,-,N/A,,Clear,140,2013-05-07 01:15:00
7:35 PM,63.0,30.4,29,29.92,10.0,SE,6.9,-,N/A,,Clear,140,2013-05-07 01:35:00
7:55 PM,62.2,29.5,29,29.92,10.0,SE,6.9,-,N/A,,Clear,130,2013-05-07 01:55:00
8:15 PM,58.5,29.3,33,29.92,10.0,ESE,6.9,-,N/A,,Clear,120,2013-05-07 02:15:00
8:35 PM,55.8,30.0,37,29.93,10.0,SSE,15.0,18.4,N/A,,Clear,150,2013-05-07 02:35:00
8:55 PM,57.7,32.4,38,29.93,10.0,SSE,13.8,17.3,N/A,,Clear,160,2013-05-07 02:55:00
9:15 PM,57.2,34.7,43,29.94,10.0,South,13.8,-,N/A,,Clear,170,2013-05-07 03:15:00
9:35 PM,55.6,35.8,47,29.95,10.0,SE,9.2,-,N/A,,Clear,140,2013-05-07 03:35:00
9:55 PM,54.7,37.0,51,29.95,10.0,SSE,10.4,18.4,N/A,,Clear,160,2013-05-07 03:55:00
10:15 PM,53.6,37.8,55,29.95,10.0,SE,9.2,-,N/A,,Clear,130,2013-05-07 04:15:00
10:35 PM,53.2,37.8,56,29.95,10.0,SE,9.2,16.1,N/A,,Clear,140,2013-05-07 04:35:00
10:55 PM,52.2,38.3,59,29.95,10.0,SE,13.8,18.4,N/A,,Clear,140,2013-05-07 04:55:00
11:15 PM,50.9,38.3,62,29.95,10.0,SSE,10.4,-,N/A,,Clear,150,2013-05-07 05:15:00
11:35 PM,50.0,38.5,65,29.94,10.0,SE,10.4,-,N/A,,Clear,140,2013-05-07 05:35:00
11:55 PM,48.7,38.5,68,29.94,10.0,SSE,8.1,-,N/A,,Clear,150,2013-05-07 05:55:00